Location: Ponte Samoggia
(44.5667°N, 11.1333°E)
Time: 22:17:46
(UTC+00:00)

Cosmos 2184 Rocket - Pass Details

Date: 26 May 2022
Orbit: 958 x 1003 km, 82.9° (Epoch: 29 June)

Event Time Altitude Azimuth Distance (km) Brightness Sun altitude
Rises 01:35:46 0° 348° (NNW) 3,697 7.7 -16.6°
Reaches altitude 10° 01:38:20 10° 344° (NNW) 2,739 6.9 -16.4°
Maximum altitude 01:44:27 58° 268° (W) 1,127 4.1 -15.7°
Enters shadow 01:48:46 20° 196° (SSW) 2,087 5.2 -15.3°
